Wind_Speed
7 6 7 4 3 4 2 2 0 3 2 3 10 5 4 3 3 2 13 19 22 22 21 18 14 13 12 14 13 14 15 17 14 12 9 7 6 9 11 11 13 16 16 15 15 14 13 12 12
6 5 5 3 4 3 2 2 4 4 3 12 9 7 3 2 4 9 20 21 23 23 21 18 15 13 11 13 14 15 15 17 13 9 8 6 6 9 11 11 15 16 16 14 12 14 13 12 13
5 4 2 4 3 3 3 4 4 4 13 2 4 3 3 4 5 20 18 25 26 23 21 19 14 12 9 11 12 12 14 17 13 9 6 6 7 9 11 11 12 14 16 13 13 12 12 15 14
2 1 5 3 2 2 3 2 6 9 3 1 4 4 4 3 12 12 23 25 26 23 19 16 16 12 10 11 12 11 12 13 12 7 5 5 8 9 10 9 10 11 14 13 11 13 15 16 17
4 1 3 2 0 1 2 4 12 5 3 1 3 3 3 7 12 13 25 26 24 21 19 17 15 12 11 11 11 11 11 9 7 7 7 7 8 8 9 8 7 9 12 11 11 13 16 16 13
3 2 3 2 1 2 1 9 9 4 6 3 3 6 5 9 13 20 25 25 23 19 20 16 14 12 11 11 10 10 10 9 8 7 7 7 8 8 9 7 6 7 11 12 10 12 14 11 10
5 3 3 4 2 2 3 10 7 6 6 3 5 4 5 12 15 23 25 24 22 20 18 16 14 13 12 10 9 10 8 8 7 7 7 7 7 8 8 7 6 8 9 11 7 8 7 7 8
5 5 4 1 3 2 6 9 3 6 3 5 7 4 5 16 20 22 25 23 21 20 18 16 16 15 12 11 9 8 7 7 6 5 5 6 6 6 6 6 6 7 6 7 6 5 5 5 5
5 4 3 6 6 3 7 5 4 4 6 6 7 3 5 20 22 26 27 26 23 22 20 18 17 16 15 13 10 9 7 7 6 5 4 4 5 5 5 5 5 6 5 6 5 5 4 3 3
4 4 7 6 5 4 9 4 10 4 3 5 7 8 8 22 24 28 29 29 27 25 23 20 19 17 16 14 12 11 9 8 7 6 5 3 3 3 3 3 4 4 5 4 4 4 3 2 2
4 4 5 3 2 5 11 3 8 8 3 9 11 11 11 25 25 25 27 27 26 24 23 22 21 19 17 16 15 13 11 10 9 7 6 4 2 2 2 2 2 3 3 3 3 2 2 1 2
5 3 5 5 5 6 8 7 4 10 6 3 7 8 13 21 25 25 25 26 25 24 23 22 21 21 20 19 17 16 14 12 11 10 8 6 5 4 3 2 1 1 2 2 2 1 1 2 3
3 4 6 7 7 7 6 2 4 10 11 11 5 10 13 16 21 22 20 20 21 22 21 21 22 22 21 21 19 18 17 15 13 12 11 10 8 7 6 5 4 4 2 1 1 1 1 2 4
5 8 7 4 4 4 2 1 1 2 4 13 12 7 12 16 18 21 23 22 23 21 20 20 20 21 21 21 20 20 19 17 17 16 15 13 11 10 9 8 7 6 4 1 3 3 4 6 8
12 5 2 3 1 2 1 3 7 9 5 4 13 13 11 14 19 21 19 21 20 20 20 22 21 19 20 19 18 19 20 19 20 19 18 16 15 13 12 11 9 8 8 9 9 9 9 9 9
5 5 4 1 3 1 3 7 3 2 9 8 9 13 15 15 17 19 20 22 22 23 22 22 24 24 23 21 20 19 18 18 18 18 18 17 17 15 15 14 12 11 11 12 14 15 16 16 15
6 4 4 1 1 2 2 6 2 1 0 3 8 10 13 15 18 20 21 22 23 23 24 25 25 26 26 25 24 23 21 20 18 17 17 16 15 17 18 17 15 14 16 16 17 18 20 21 22
6 5 1 3 2 2 1 8 9 9 10 14 15 13 13 14 14 15 19 23 24 26 26 26 27 28 27 27 28 28 27 25 24 22 21 19 19 18 17 18 19 19 21 22 23 23 24 23 25
7 5 5 1 1 2 4 7 11 19 14 20 20 18 18 18 18 17 20 22 24 27 29 29 28 27 29 30 31 32 32 30 29 27 25 23 23 24 24 24 21 24 25 25 24 27 29 31 26
5 6 3 2 2 3 1 10 10 12 12 13 15 19 16 13 10 11 16 22 29 27 26 28 28 29 27 28 29 30 30 29 28 27 27 27 26 26 28 29 29 28 27 29 31 30 32 31 33
2 6 5 4 2 3 3 7 6 2 3 6 4 7 7 7 7 6 9 10 19 27 27 26 26 27 28 28 28 29 30 30 29 27 26 26 28 29 30 30 31 30 30 33 30 34 36 34 33
5 4 6 7 4 2 3 4 5 3 7 6 10 10 9 7 6 4 2 3 5 14 21 22 24 24 26 28 29 29 29 28 25 24 22 22 23 25 28 30 31 34 34 35 32 36 35 34 39
3 5 6 4 5 3 3 2 7 3 2 3 7 8 9 9 10 12 11 10 7 2 5 12 18 19 19 22 24 26 28 27 26 26 25 24 24 23 23 25 26 31 33 33 34 36 39 38 38
10 7 8 5 3 1 1 4 5 3 3 2 4 6 8 9 10 12 13 12 11 9 6 3 6 10 12 13 14 15 18 19 21 22 22 22 22 23 23 23 24 27 30 31 33 34 36 38 39
4 6 3 2 2 4 2 3 8 3 2 3 2 6 10 13 15 16 15 16 16 16 14 12 11 8 6 5 5 6 7 10 12 14 16 18 19 19 19 21 24 25 27 30 32 35 37 39 40
6 6 5 7 4 2 2 5 5 2 8 3 4 11 17 20 23 25 25 25 26 25 25 22 21 18 15 12 8 4 0 3 5 8 10 10 11 12 13 15 18 21 24 27 31 34 37 39 41
5 5 4 8 2 3 3 6 5 3 5 9 13 21 25 23 25 25 24 24 23 21 21 20 19 19 17 15 12 8 6 4 4 6 8 9 10 12 13 15 17 19 22 25 28 33 36 38 39
4 8 4 3 3 3 3 5 5 5 5 5 10 19 21 22 22 21 19 18 16 15 14 12 12 11 11 9 8 7 6 7 8 9 11 13 15 17 19 20 22 24 25 26 28 31 35 38 41
3 3 5 5 4 5 3 6 6 8 8 10 14 18 19 20 20 17 15 13 12 11 9 9 9 9 8 8 7 7 7 9 11 12 14 16 18 21 23 25 28 29 29 29 30 31 31 34 37
1 6 6 5 5 1 3 5 1 6 11 16 15 15 15 16 15 14 14 12 10 10 9 9 9 9 10 10 9 10 10 11 12 13 15 18 19 21 23 25 26 28 29 29 30 32 32 33 35
Wind_Direction
324 332 338 360 59 63 142 224 351 130 190 148 135 148 176 103 161 180 149 157 156 149 142 133 117 108 113 112 114 121 124 119 117 119 114 100 77 69 75 86 83 82 96 91 97 98 101 102 107
306 313 344 72 87 74 268 252 185 190 136 129 112 116 113 105 112 145 148 157 157 149 143 132 114 105 116 122 121 125 126 123 121 127 107 97 77 75 89 94 92 94 99 100 90 89 91 96 95
282 309 347 86 107 151 199 216 147 118 135 142 116 96 110 129 127 149 154 156 157 153 147 149 135 131 129 116 119 126 137 128 125 130 116 97 84 81 92 100 102 101 103 105 96 87 89 94 97
230 330 56 82 171 203 184 163 135 126 199 178 130 83 98 134 154 152 156 159 158 158 155 160 149 150 141 130 119 122 115 122 130 129 96 81 79 80 87 101 111 100 102 110 94 85 96 99 92
183 98 65 87 359 274 238 153 142 129 134 206 152 164 100 140 161 156 160 160 162 162 157 155 150 147 137 133 124 113 110 116 128 106 90 78 82 89 89 99 96 87 99 110 96 89 95 93 106
134 102 76 171 231 283 130 151 145 147 132 165 123 132 135 151 157 161 164 163 164 163 160 163 162 154 147 143 133 128 124 124 115 100 89 84 89 90 89 94 85 80 103 108 101 91 102 112 110
130 91 162 146 160 45 152 147 161 161 145 184 152 124 157 165 156 160 164 167 169 173 172 172 172 171 161 149 146 138 136 129 127 114 100 94 92 89 88 89 81 80 106 123 122 107 102 104 103
143 96 107 216 165 182 160 156 190 151 191 148 175 177 175 174 165 166 169 174 176 181 185 184 182 181 176 165 162 152 154 153 140 129 113 98 90 89 88 86 80 76 97 102 116 101 96 114 101
137 69 151 182 166 196 158 161 153 147 151 166 190 183 146 170 168 174 176 181 186 188 190 193 192 190 190 183 180 173 177 177 174 165 146 132 122 116 105 94 84 81 81 90 104 103 94 94 81
104 109 205 181 190 174 168 181 155 141 168 205 201 201 170 178 178 183 188 191 194 196 195 197 198 199 198 196 196 195 197 196 195 192 181 167 139 121 107 95 87 82 81 88 98 102 91 79 44
127 163 171 168 151 158 155 165 164 149 224 228 217 206 190 186 190 194 197 202 202 202 203 200 201 204 207 208 209 211 212 212 212 214 211 208 205 199 173 127 103 80 72 67 87 98 95 61 6
97 91 136 126 118 137 157 152 193 201 206 228 237 217 206 194 199 201 204 206 209 209 208 209 208 210 213 216 219 223 225 226 227 227 228 231 233 232 225 216 175 132 80 51 80 98 85 48 22
100 144 109 119 120 121 143 140 243 245 232 242 268 208 212 212 211 210 211 210 212 213 213 213 214 215 218 222 225 228 230 232 235 238 241 242 242 242 241 240 233 214 207 59 44 9 12 3 355
129 120 118 121 113 103 134 175 247 245 259 232 230 223 217 221 219 214 213 211 212 213 214 214 218 222 225 232 235 239 240 240 242 243 246 246 245 245 245 244 247 240 229 179 312 308 310 320 324
124 86 71 55 136 83 99 283 232 245 258 247 224 231 233 224 224 228 230 225 220 219 217 221 222 223 228 235 242 248 250 248 247 247 246 247 250 251 251 252 249 257 260 259 275 282 280 282 294
76 61 123 311 150 51 122 264 273 294 236 250 243 231 238 234 236 235 233 234 233 230 226 226 228 229 232 236 241 247 252 255 254 252 251 253 252 248 248 249 253 256 256 265 268 267 265 264 267
18 164 178 171 191 113 127 257 292 181 311 227 242 250 259 247 240 237 238 236 235 235 234 232 233 236 239 242 245 249 254 258 264 259 254 252 255 249 252 256 256 256 260 263 267 273 271 271 272
172 144 165 195 198 82 148 261 281 273 278 280 282 266 263 261 251 250 242 241 239 238 238 236 237 240 240 244 247 250 252 255 258 260 259 255 257 260 259 263 264 262 263 264 268 273 270 278 276
134 118 133 181 5 153 236 271 275 284 274 274 274 275 276 276 275 259 247 242 238 236 236 236 236 236 236 239 241 245 248 251 255 260 264 262 257 255 255 260 263 266 269 270 268 269 274 272 279
115 120 132 83 71 132 36 281 267 272 260 271 282 283 288 284 277 256 249 245 237 236 237 238 239 240 239 241 245 248 254 257 260 263 266 267 266 258 261 264 265 267 265 273 271 269 269 270 272
100 146 169 142 123 75 333 298 316 326 338 331 316 292 293 291 302 274 234 247 231 229 235 237 240 240 240 242 244 246 250 256 260 264 270 271 270 269 262 265 267 269 273 268 271 273 265 268 275
158 166 125 123 94 198 4 275 302 316 328 42 50 64 77 82 61 55 139 206 222 228 232 234 236 239 239 242 245 247 251 254 263 269 277 279 278 275 274 270 272 274 274 275 270 273 273 277 277
163 114 110 95 95 85 341 69 271 357 95 77 37 54 63 67 68 71 79 80 80 88 233 233 235 237 236 240 244 247 251 257 262 269 274 279 282 282 280 275 275 272 275 276 275 271 274 276 273
150 83 54 51 87 79 204 151 277 242 185 150 1 54 60 78 82 83 79 76 78 77 80 115 212 228 235 240 245 249 253 258 263 269 275 279 278 277 276 274 270 271 273 274 274 276 276 275 277
87 97 47 6 347 209 19 128 245 258 289 270 307 67 81 90 93 94 92 89 88 90 91 94 98 110 129 160 187 213 240 255 265 271 274 276 279 278 277 272 271 269 268 271 272 272 272 271 271
182 155 157 188 194 199 64 225 248 202 333 200 128 108 104 100 98 94 91 89 87 86 85 84 84 84 82 81 79 79 55 284 285 279 276 280 283 284 280 276 272 273 273 273 272 272 274 273 271
190 193 156 104 23 67 216 286 321 56 87 109 120 115 107 101 99 94 92 90 89 87 82 78 75 73 69 65 61 56 41 9 333 313 307 298 294 289 286 286 286 286 285 284 282 279 277 277 277
166 157 79 9 125 226 277 280 231 168 152 138 133 116 108 107 105 103 101 98 92 86 79 73 65 56 50 45 36 19 359 341 329 318 308 301 298 299 300 298 296 296 296 295 291 287 285 282 280
135 159 63 114 136 161 174 253 213 180 173 158 152 124 112 115 110 107 104 99 94 92 84 71 61 51 39 30 21 7 349 336 327 322 317 312 310 307 306 305 302 301 300 298 294 292 288 283 281
132 170 156 143 208 204 141 269 338 165 157 151 150 141 121 124 116 112 107 102 95 80 70 56 46 34 33 28 17 5 357 347 337 331 327 323 321 319 315 311 309 308 307 305 302 298 295 290 286
Height
1540 1540 1540 1540 1550 1557 1566 1563 1559 1560 1561 1560 1560 1562 1564 1565 1566 1573 1567 1571 1574 1577 1580 1583 1585 1586 1588 1588 1589 1590 1591 1593 1595 1595 1594 1596 1595 1595 1594 1594 1594 1595 1595 1595 1594 1594 1594 1594 1594
1540 1541 1541 1541 1557 1566 1565 1561 1558 1558 1559 1560 1561 1562 1563 1566 1565 1566 1568 1571 1576 1579 1581 1584 1586 1587 1589 1590 1590 1591 1592 1595 1596 1597 1596 1597 1597 1596 1596 1596 1596 1597 1598 1598 1597 1596 1595 1596 1596
1540 1541 1543 1548 1565 1563 1564 1558 1555 1557 1559 1561 1561 1562 1564 1565 1565 1567 1569 1572 1576 1580 1583 1584 1586 1588 1590 1590 1591 1592 1595 1596 1598 1598 1598 1598 1598 1598 1598 1598 1598 1599 1599 1600 1599 1599 1598 1597 1598
1540 1543 1546 1553 1556 1555 1555 1554 1553 1557 1560 1561 1561 1564 1565 1565 1567 1568 1570 1574 1577 1581 1583 1586 1588 1590 1592 1593 1593 1595 1596 1597 1599 1599 1599 1599 1599 1600 1600 1600 1600 1600 1600 1601 1601 1601 1601 1600 1602
1540 1543 1553 1558 1555 1554 1553 1552 1553 1558 1560 1562 1561 1563 1564 1565 1566 1568 1571 1575 1578 1581 1584 1586 1589 1591 1592 1594 1595 1596 1597 1599 1600 1600 1601 1601 1601 1601 1602 1602 1601 1601 1601 1603 1603 1603 1603 1604 1605
1541 1544 1557 1560 1556 1553 1552 1551 1553 1557 1558 1561 1562 1563 1565 1565 1567 1568 1572 1575 1579 1582 1584 1587 1589 1591 1593 1595 1596 1597 1598 1599 1600 1601 1602 1602 1603 1602 1603 1603 1603 1603 1603 1605 1606 1606 1606 1606 1606
1540 1546 1555 1557 1555 1551 1550 1552 1554 1556 1557 1560 1561 1563 1565 1566 1567 1569 1572 1576 1579 1582 1584 1586 1589 1591 1593 1595 1596 1597 1599 1600 1601 1602 1603 1603 1604 1604 1604 1604 1605 1605 1605 1607 1607 1608 1608 1608 1607
1538 1543 1554 1556 1555 1552 1550 1552 1554 1555 1558 1558 1561 1561 1563 1565 1567 1570 1573 1576 1578 1581 1583 1586 1588 1590 1592 1594 1596 1598 1599 1601 1602 1603 1604 1604 1605 1605 1605 1606 1606 1606 1606 1607 1608 1609 1609 1609 1609
1537 1549 1557 1554 1555 1549 1549 1552 1554 1555 1557 1558 1560 1561 1561 1563 1566 1570 1572 1575 1577 1579 1582 1584 1587 1589 1592 1594 1596 1597 1599 1601 1602 1604 1605 1605 1606 1606 1606 1606 1606 1607 1607 1608 1609 1609 1609 1610 1610
1535 1549 1548 1544 1545 1546 1548 1551 1552 1555 1557 1558 1558 1559 1561 1563 1565 1567 1570 1572 1574 1577 1580 1583 1586 1588 1591 1593 1595 1597 1599 1601 1602 1604 1605 1606 1606 1607 1607 1607 1608 1608 1608 1608 1609 1609 1610 1610 1610
1536 1543 1541 1543 1543 1545 1548 1551 1551 1553 1556 1555 1555 1557 1559 1561 1563 1566 1568 1571 1573 1576 1579 1580 1583 1586 1589 1591 1594 1596 1598 1600 1601 1602 1604 1605 1606 1607 1607 1608 1608 1608 1608 1609 1609 1610 1610 1611 1610
1537 1539 1540 1542 1544 1546 1548 1550 1551 1551 1551 1552 1553 1554 1557 1558 1560 1562 1565 1569 1571 1574 1578 1580 1582 1584 1586 1589 1591 1594 1596 1598 1600 1601 1602 1604 1605 1606 1607 1607 1608 1608 1608 1609 1609 1610 1611 1611 1611
1535 1539 1540 1543 1544 1546 1548 1550 1552 1549 1550 1551 1552 1552 1554 1556 1558 1562 1564 1567 1571 1573 1576 1578 1581 1583 1585 1587 1589 1591 1594 1596 1598 1599 1601 1602 1603 1605 1605 1606 1607 1607 1608 1609 1610 1610 1611 1611 1611
1535 1537 1541 1543 1545 1546 1547 1550 1551 1547 1546 1548 1550 1551 1552 1555 1557 1559 1561 1563 1566 1571 1573 1577 1579 1582 1585 1587 1588 1589 1592 1594 1596 1598 1599 1601 1602 1603 1604 1605 1605 1607 1608 1608 1609 1610 1610 1610 1610
1536 1541 1543 1544 1545 1546 1546 1549 1548 1546 1545 1546 1547 1549 1551 1551 1555 1556 1559 1562 1564 1567 1571 1573 1576 1579 1581 1584 1586 1588 1590 1592 1593 1595 1597 1598 1600 1601 1603 1603 1604 1605 1606 1607 1607 1608 1608 1608 1609
1540 1543 1551 1545 1546 1547 1547 1554 1543 1543 1544 1544 1546 1546 1548 1549 1550 1554 1557 1559 1562 1564 1565 1570 1573 1576 1578 1580 1582 1584 1586 1588 1590 1592 1594 1595 1597 1598 1600 1601 1603 1604 1604 1605 1605 1605 1605 1604 1604
1546 1552 1550 1547 1547 1547 1549 1548 1543 1542 1543 1542 1544 1543 1545 1546 1546 1548 1552 1554 1557 1559 1562 1565 1568 1571 1575 1577 1579 1581 1583 1584 1586 1588 1590 1592 1593 1595 1597 1597 1599 1600 1600 1601 1601 1601 1601 1601 1600
1546 1549 1548 1546 1549 1547 1550 1548 1543 1541 1541 1541 1542 1542 1542 1542 1543 1545 1547 1549 1552 1555 1557 1560 1563 1566 1569 1572 1575 1577 1579 1580 1582 1584 1586 1589 1589 1590 1592 1593 1594 1595 1596 1596 1597 1597 1596 1596 1596
1538 1542 1546 1547 1547 1547 1551 1549 1543 1539 1539 1536 1537 1539 1538 1539 1540 1540 1541 1543 1545 1547 1550 1553 1556 1558 1561 1564 1568 1570 1571 1575 1577 1579 1581 1584 1586 1587 1588 1589 1590 1591 1590 1591 1591 1591 1591 1591 1591
1535 1542 1545 1548 1548 1548 1552 1548 1537 1534 1534 1534 1534 1534 1534 1533 1534 1534 1534 1535 1538 1541 1544 1547 1550 1553 1556 1559 1562 1565 1568 1571 1573 1575 1577 1578 1579 1582 1582 1583 1584 1584 1584 1586 1585 1586 1585 1585 1585
1537 1540 1544 1543 1548 1551 1553 1548 1539 1533 1533 1533 1532 1531 1531 1530 1529 1528 1529 1529 1530 1535 1538 1541 1545 1547 1551 1554 1557 1559 1562 1565 1568 1569 1571 1573 1574 1575 1577 1577 1577 1578 1579 1578 1579 1579 1577 1576 1577
1538 1535 1540 1546 1550 1558 1556 1561 1544 1535 1534 1533 1532 1530 1529 1529 1528 1527 1526 1527 1528 1530 1533 1536 1539 1542 1546 1549 1552 1554 1556 1559 1562 1565 1567 1568 1569 1569 1570 1572 1572 1572 1571 1571 1571 1572 1571 1571 1569
1534 1535 1541 1549 1557 1557 1558 1563 1544 1539 1533 1532 1532 1531 1530 1529 1529 1528 1528 1528 1528 1529 1530 1532 1535 1538 1541 1543 1547 1550 1552 1555 1558 1561 1562 1563 1564 1564 1564 1564 1565 1564 1564 1564 1564 1564 1564 1563 1563
1533 1540 1550 1558 1562 1568 1559 1564 1549 1539 1533 1531 1531 1531 1530 1530 1530 1529 1530 1530 1530 1530 1530 1530 1532 1535 1538 1541 1543 1546 1550 1552 1554 1556 1558 1558 1558 1558 1558 1558 1558 1558 1557 1557 1557 1556 1556 1555 1554
1530 1541 1564 1569 1577 1566 1569 1569 1542 1531 1533 1533 1532 1531 1530 1531 1531 1530 1531 1531 1531 1531 1531 1532 1532 1534 1536 1539 1540 1542 1545 1547 1549 1550 1551 1552 1553 1552 1553 1552 1551 1551 1550 1549 1549 1547 1546 1545 1544
1532 1530 1551 1562 1573 1561 1569 1561 1537 1531 1530 1531 1533 1532 1531 1532 1532 1532 1534 1534 1533 1534 1535 1536 1535 1537 1539 1540 1542 1543 1544 1546 1547 1547 1547 1547 1547 1547 1547 1546 1545 1544 1544 1542 1541 1539 1537 1536 1534
1529 1535 1535 1563 1611 1578 1561 1548 1532 1531 1531 1531 1534 1532 1531 1532 1533 1535 1537 1536 1537 1538 1539 1539 1540 1540 1542 1542 1543 1545 1546 1546 1546 1546 1545 1545 1545 1544 1543 1542 1541 1539 1538 1536 1533 1530 1528 1525 1524
1520 1525 1539 1555 1578 1573 1559 1554 1538 1532 1532 1532 1534 1532 1532 1533 1534 1536 1538 1539 1539 1540 1541 1542 1542 1543 1543 1543 1543 1544 1544 1544 1543 1543 1542 1541 1540 1539 1538 1537 1535 1534 1532 1530 1527 1523 1520 1517 1514
1523 1523 1530 1535 1545 1557 1573 1544 1529 1527 1528 1530 1532 1532 1532 1533 1535 1537 1538 1540 1540 1541 1543 1543 1543 1543 1543 1543 1543 1543 1543 1543 1542 1541 1539 1537 1536 1533 1531 1529 1528 1526 1523 1521 1518 1515 1512 1509 1506
1512 1515 1518 1531 1545 1558 1554 1539 1524 1524 1526 1528 1531 1532 1533 1534 1536 1538 1538 1540 1541 1541 1542 1542 1542 1542 1542 1542 1542 1542 1541 1541 1540 1538 1536 1534 1532 1529 1527 1524 1522 1519 1516 1513 1510 1507 1504 1501 1497